Location: Washington
(38.8950°N, 77.0370°W)
Time: 15:04:35
(UTC-04:00)

Daily predictions for brighter satellites

Satellite Brightness Start Highest point End
(mag) Time Altitude Azimuth Time Altitude Azimuth Time Altitude Azimuth
Cosmos 1812 Rocket 3.7 19:19:48 10° S 19:24:07 79° W 19:28:29 10° N
Aureole 2 Rocket 3.6 19:20:49 10° S 19:24:50 36° ESE 19:28:50 10° NE
Cosmos 1624 Rocket 4.2 19:23:08 10° N 19:28:13 51° ENE 19:33:16 10° SE
ATLAS CENTAUR R/B 3.4 19:26:59 10° SSW 19:31:19 54° ESE 19:43:59 10° NE
Meteor 1-22 Rocket 4.2 19:28:45 10° S 19:34:00 56° E 19:39:11 10° NNE
Cosmos 2219 Rocket 3.7 19:31:15 10° SW 19:36:30 40° WNW 19:41:48 10° N
Cosmos 921 Rocket 4.0 19:32:59 10° NNW 19:37:04 50° WSW 19:41:05 10° S
Cosmos 2233 Rocket 4.2 19:31:22 10° S 19:37:38 80° W 19:44:00 10° N
HJ-1C 4.2 19:35:35 10° SE 19:38:34 31° ENE 19:41:35 10° N
USA 215 3.3 19:32:34 10° NE 19:39:07 75° SE 19:45:39 10° SW
Cosmos 1441 Rocket 3.6 19:36:29 10° NNW 19:40:13 65° W 19:43:54 10° S
Cosmos 2278 Rocket 2.5 19:35:37 10° NNW 19:41:16 72° WSW 19:46:52 10° SSE
Meteor 2-5 Rocket 4.1 19:36:40 10° NNW 19:42:16 68° W 19:47:45 10° S
METEOR-M 4.3 19:38:35 10° SSE 19:43:46 54° ENE 19:48:59 10° N
Meteor 1-29 3.8 19:41:00 10° NE 19:44:07 29° E 19:47:13 10° SSE
TIMED 4.5 19:40:22 10° NNW 19:44:44 65° ENE 19:49:03 10° SSE
Cosmos 2297 3.8 19:39:18 10° NNW 19:44:55 59° ENE 19:50:27 10° SE
Meteor 1-24 Rocket 3.6 19:41:13 10° N 19:46:54 75° E 19:52:21 10° SSE
Meteor 1-28 Rocket 3.1 19:43:16 10° NNE 19:47:00 84° ESE 19:50:42 10° S
Cosmos 1378 3.2 19:44:40 10° N 19:48:21 54° E 19:52:00 10° SSE
FENGYUN 3A 4.4 19:45:32 10° SE 19:50:11 31° ENE 19:54:51 10° N
SJ-6B 2.9 19:47:02 10° S 19:50:58 83° WSW 19:55:01 10° NNW
Cosmos 1707 3.6 19:47:14 10° NNW 19:51:00 53° W 19:54:44 10° S
Cosmos 1076 Rocket 3.8 19:48:20 10° N 19:52:29 44° E 19:56:37 10° SSE
Cosmos-2242 3.8 19:51:09 10° SSE 19:54:57 30° E 19:58:48 10° NNE
Cosmos 1452 Rocket 4.1 19:52:34 10° N 19:57:25 36° ENE 20:01:28 14° SE
Cosmos 1758 3.9 19:54:58 10° SSE 19:58:41 37° E 20:02:29 10° NNE
Cosmos 192 4.3 19:55:18 10° S 20:00:10 64° ESE 20:05:06 10° NNE
Cosmos 2369 Rocket 4.0 19:57:50 10° NNE 20:00:19 13° NE 20:01:47 12° ENE
Helios 1B rocket 2.3 19:56:42 10° NNE 20:00:48 66° ESE 20:04:52 10° S
Cosmos 1603 4.3 19:56:38 10° SSE 20:01:40 33° ESE 20:06:44 10° NE
SeaSat 1 3.3 19:59:47 10° NE 20:04:01 28° ESE 20:08:12 10° SSE
Cosmos 1408 Rocket 3.6 20:01:25 10° N 20:05:42 54° E 20:09:56 10° SSE
Resurs 01 Rocket 1.5 20:03:51 10° SSE 20:08:17 81° ENE 20:12:45 10° N
NOSS 3-2 (A) 3.5 20:04:51 10° SSW 20:10:54 87° NW 20:17:29 10° NNE
FengYun 1-2 T 4.2 20:05:57 10° SSE 20:11:25 67° ENE 20:16:52 10° N
Cosmos 2333 Rocket 4.3 20:06:51 10° WSW 20:11:47 29° WNW 20:16:44 10° N
Resurs 1-3 3.5 20:08:00 10° SSE 20:12:21 69° ENE 20:16:44 10° N
CZ-4B DEB 3.1 20:15:35 34° ESE 20:16:30 44° ENE 20:19:39 10° N
Atlas Centaur 2 3.9 20:16:18 10° W 20:23:59 38° SSW 20:28:58 19° SE
ATLAS CENTAUR R/B 2.7 20:21:02 10° NW 20:24:51 36° WSW 20:28:23 10° S
Meteor 1-21 Rocket 4.1 20:21:01 10° N 20:26:32 61° ENE 20:31:13 14° SSE
ALOS 2.1 20:26:02 14° SSE 20:30:05 74° ENE 20:34:46 10° N
Cosmos 1743 Rocket 3.7 20:28:07 10° N 20:32:28 50° E 20:33:29 41° ESE
Cosmos 1269 Rocket 4.1 20:27:42 10° S 20:32:45 48° ESE 20:37:49 10° NNE
In-Cosmos 22 4.3 20:27:13 10° N 20:33:01 86° W 20:38:46 10° S
Cosmos 1674 3.9 20:29:57 10° NNE 20:32:23 28° NE 20:32:23 28° NE
Nadezhda 4 Rocket 4.0 20:27:25 10° N 20:33:40 62° E 20:38:48 15° SSE
Spot 2 Rocket 4.3 20:33:10 10° S 20:38:03 50° W 20:42:58 10° NNW
Cosmos 1092 Rocket 4.1 20:32:36 10° N 20:38:36 48° ENE 20:40:57 33° SE
ASTRO E2 3.9 20:35:18 10° WSW 20:38:46 28° S 20:38:55 28° S
Cosmos 1048 Rocket 4.2 20:34:35 10° S 20:39:40 48° ESE 20:44:43 10° NNE
GP-B 4.2 20:36:31 10° NNE 20:39:11 28° NE 20:39:11 28° NE
NOSS 3-3 (A) 4.5 20:35:42 10° NW 20:43:15 86° WSW 20:48:48 22° SSE
NOSS 3-3 (C) 4.5 20:35:48 10° NW 20:43:21 86° WSW 20:48:51 22° SSE
OAO 3 Rocket 3.4 20:40:42 10° WSW 20:45:23 54° S 20:46:04 49° SE
Helios 1A 4.3 20:42:18 10° SSW 20:46:13 39° W 20:50:09 10° NNW
NOSS 3-2 (C) 3.9 20:41:58 10° SW 20:47:57 61° NW 20:54:31 10° NNE
Envisat 4.1 20:50:02 27° NE 20:50:02 27° NE 20:53:18 10° N
CENTAUR R/B 3.4 20:45:46 10° S 20:48:51 28° SSE 20:48:51 28° SSE
Cosmos 1634 Rocket 4.1 20:49:16 36° SE 20:51:17 49° E 20:57:15 10° NNE
ATLAS 5 CENTAUR R/B 2.3 20:47:23 10° SW 20:52:05 60° NW 20:57:12 10° NNE
ASTEX 1 3.3 20:47:44 10° N 20:52:41 86° W 20:57:34 10° S
CZ-2D R/B 3.4 20:52:09 50° SSW 20:53:01 71° WSW 20:56:56 10° NNW
Cosmos 1953 3.5 20:50:28 10° SSW 20:54:15 42° W 20:58:04 10° N
SL-16 R/B 4.0 20:53:41 10° WSW 20:58:41 31° WNW 21:03:44 10° N
H-2A R/B 4.0 21:12:11 37° WSW 21:12:49 40° W 21:16:32 10° NNW
Cosmos 2195 Rocket 4.5 21:10:35 10° N 21:16:42 63° ENE 21:16:42 63° ENE
ERS-1 Rocket 3.7 21:34:40 46° NNW 21:34:40 46° NNW 21:38:11 10° NNW
Cosmos 1627 Rocket 4.4 21:31:14 10° N 21:36:58 77° N 21:36:58 77° N
SeaSat 1 3.8 21:37:02 10° N 21:41:32 36° WNW 21:46:01 10° WSW
Cosmos 2369 Rocket 2.9 21:39:33 10° NNW 21:43:35 48° NNW 21:43:35 48° NNW
Cosmos 839 Rocket 4.3 21:42:26 10° NNW 21:49:20 71° N 21:49:20 71° N
Cosmos 1943 Rocket 3.9 21:51:25 10° N 21:53:52 24° N 21:53:52 24° N
